timestamp,surface_pressure_avg,surface_temp_avg,battery_voltage,lat,long
2019-08-26 00:00:00+00:00,211.8481,17.8,12.97,47.84626,-54.09684
2019-08-26 00:10:00+00:00,212.9347,17.8,12.89,47.84626,-54.09684
2019-08-26 00:20:00+00:00,211.2548,17.8,12.97,47.84626,-54.09684
2019-08-26 00:30:00+00:00,209.3398,17.8,12.97,47.84626,-54.09684
2019-08-26 00:40:00+00:00,206.2248,17.8,12.97,47.84626,-54.09684
2019-08-26 00:50:00+00:00,200.8297,17.8,12.97,47.84626,-54.09684
2019-08-26 01:00:00+00:00,200.6631,17.79,12.97,47.84626,-54.09684
2019-08-26 01:10:00+00:00,201.6381,17.79,12.89,47.84626,-54.09684
2019-08-26 01:20:00+00:00,199.6547,17.78,12.97,47.84626,-54.09684
2019-08-26 01:30:00+00:00,200.7998,17.76,12.97,47.84626,-54.09684
2019-08-26 01:40:00+00:00,206.7664,17.76,12.97,47.84626,-54.09684
2019-08-26 01:50:00+00:00,205.3998,17.73,12.97,47.84626,-54.09684
2019-08-26 02:00:00+00:00,201.4831,17.7,12.89,47.84626,-54.09684
2019-08-26 02:10:00+00:00,203.2865,17.7,12.81,47.84626,-54.09684
2019-08-26 02:20:00+00:00,202.6581,17.7,12.89,47.84626,-54.09684
2019-08-26 02:30:00+00:00,200.5381,17.7,12.89,47.84626,-54.09684
2019-08-26 02:40:00+00:00,202.1147,17.7,12.97,47.84626,-54.09684
2019-08-26 02:50:00+00:00,206.7214,17.7,12.97,47.84626,-54.09684
2019-08-26 03:00:00+00:00,209.3398,17.7,12.89,47.84626,-54.09684
2019-08-26 03:10:00+00:00,212.5714,17.7,12.81,47.84626,-54.09684
2019-08-26 03:20:00+00:00,212.2914,17.7,12.89,47.84626,-54.09684
2019-08-26 03:30:00+00:00,211.0581,17.7,12.89,47.84626,-54.09684
2019-08-26 03:40:00+00:00,220.2565,17.7,12.97,47.84626,-54.09684
2019-08-26 03:50:00+00:00,230.1697,17.69,12.97,47.84626,-54.09684
2019-08-26 04:00:00+00:00,228.9131,17.69,12.89,47.84626,-54.09684
2019-08-26 04:10:00+00:00,225.7647,17.67,12.81,47.84626,-54.09684
2019-08-26 04:20:00+00:00,231.3464,17.66,12.89,47.84626,-54.09684
2019-08-26 04:30:00+00:00,240.8015,17.66,12.89,47.84626,-54.09684
2019-08-26 04:40:00+00:00,248.5597,17.65,12.97,47.84626,-54.09684
2019-08-26 04:50:00+00:00,253.4081,17.6,12.97,47.84626,-54.09684
2019-08-26 05:00:00+00:00,257.1897,17.6,12.89,47.84626,-54.09684
2019-08-26 05:10:00+00:00,260.4747,17.6,12.81,47.84626,-54.09684
2019-08-26 05:20:00+00:00,265.1913,17.6,12.89,47.84626,-54.09684
2019-08-26 05:30:00+00:00,270.828,17.6,12.89,47.84626,-54.09684
2019-08-26 05:40:00+00:00,273.0598,17.6,12.89,47.84626,-54.09684
2019-08-26 05:50:00+00:00,272.2429,17.6,12.97,47.84626,-54.09684
2019-08-26 06:00:00+00:00,271.5814,17.6,12.89,47.84626,-54.09684
2019-08-26 06:10:00+00:00,273.6315,17.6,12.81,47.84626,-54.09684
2019-08-26 06:20:00+00:00,276.5797,17.6,12.89,47.84626,-54.09684
2019-08-26 06:30:00+00:00,279.9714,17.6,12.89,47.84626,-54.09684
2019-08-26 06:40:00+00:00,281.5997,17.6,12.89,47.84626,-54.09684
2019-08-26 06:50:00+00:00,283.4114,17.6,12.89,47.84626,-54.09684
2019-08-26 07:00:00+00:00,284.7997,17.6,12.81,47.84626,-54.09684
2019-08-26 07:10:00+00:00,286.4231,17.6,12.81,47.84626,-54.09684
2019-08-26 07:20:00+00:00,287.6097,17.6,12.89,47.84626,-54.09684
2019-08-26 07:30:00+00:00,288.9882,17.6,12.89,47.84626,-54.09684
2019-08-26 07:40:00+00:00,290.7631,17.59,12.89,47.84626,-54.09684
2019-08-26 07:50:00+00:00,292.853,17.58,12.89,47.84626,-54.09684
2019-08-26 08:00:00+00:00,290.0697,17.59,12.81,47.84626,-54.09684
2019-08-26 08:10:00+00:00,287.4163,17.59,12.81,47.84626,-54.09684
2019-08-26 08:20:00+00:00,285.3563,17.59,12.89,47.84626,-54.09684
2019-08-26 08:30:00+00:00,286.7496,17.58,12.89,47.84626,-54.09684
2019-08-26 08:40:00+00:00,287.4282,17.58,12.89,47.84626,-54.09684
2019-08-26 08:50:00+00:00,283.7498,17.57,12.89,47.84626,-54.09684
2019-08-26 09:00:00+00:00,275.8848,17.56,12.81,47.84626,-54.09684
2019-08-26 09:10:00+00:00,270.3714,17.56,12.81,47.84626,-54.09684
2019-08-26 09:20:00+00:00,267.4597,17.55,12.97,47.84626,-54.09684
2019-08-26 09:30:00+00:00,263.9031,17.56,13.05,47.84626,-54.09684
2019-08-26 09:40:00+00:00,255.2114,17.59,13.29,47.84626,-54.09684
2019-08-26 09:50:00+00:00,248.0447,17.58,13.44,47.84626,-54.09684
2019-08-26 10:00:00+00:00,242.563,17.57,13.53,47.84626,-54.09684
2019-08-26 10:10:00+00:00,238.6732,17.56,13.6,47.84626,-54.09684
2019-08-26 10:20:00+00:00,233.1564,17.58,13.84,47.84626,-54.09684
2019-08-26 10:30:00+00:00,225.8164,17.59,14.0,47.84626,-54.09684
2019-08-26 10:40:00+00:00,222.8814,17.59,14.24,47.84626,-54.09684
2019-08-26 10:50:00+00:00,221.9832,17.59,14.56,47.84626,-54.09684
2019-08-26 11:00:00+00:00,219.4597,17.6,14.56,47.84626,-54.09684
2019-08-26 11:10:00+00:00,219.1464,17.6,14.56,47.84626,-54.09684
2019-08-26 11:20:00+00:00,221.2547,17.6,14.96,47.84626,-54.09684
2019-08-26 11:30:00+00:00,221.7681,17.6,14.8,47.84626,-54.09684
2019-08-26 11:40:00+00:00,216.0431,17.65,14.8,47.84626,-54.09684
2019-08-26 11:50:00+00:00,212.0148,17.69,14.8,47.84626,-54.09684
2019-08-26 12:00:00+00:00,214.7397,17.7,14.64,47.84626,-54.09684
2019-08-26 12:10:00+00:00,211.8298,17.7,14.56,47.84626,-54.09684
2019-08-26 12:20:00+00:00,205.2931,17.7,14.72,47.84626,-54.09684
2019-08-26 12:30:00+00:00,203.0764,17.71,14.72,47.84626,-54.09684
2019-08-26 12:40:00+00:00,207.4615,17.78,14.72,47.84626,-54.09684
2019-08-26 12:50:00+00:00,207.4998,17.8,14.72,47.84626,-54.09684
2019-08-26 13:00:00+00:00,201.8431,17.8,14.64,47.84626,-54.09684
2019-08-26 13:10:00+00:00,200.7664,17.8,14.56,47.84626,-54.09684
2019-08-26 13:20:00+00:00,202.5848,17.8,14.64,47.84626,-54.09684
2019-08-26 13:30:00+00:00,196.5448,17.8,14.64,47.84626,-54.09684
2019-08-26 13:40:00+00:00,194.4882,17.8,14.64,47.84626,-54.09684
2019-08-26 13:50:00+00:00,201.5081,17.8,14.64,47.84626,-54.09684
2019-08-26 14:00:00+00:00,203.1998,17.8,14.56,47.84626,-54.09684
2019-08-26 14:10:00+00:00,201.9481,17.8,14.48,47.84626,-54.09684
2019-08-26 14:20:00+00:00,207.118,17.8,14.56,47.84626,-54.09684
2019-08-26 14:30:00+00:00,211.6364,17.8,14.56,47.84626,-54.09684
2019-08-26 14:40:00+00:00,211.1181,17.8,14.56,47.84626,-54.09684
2019-08-26 14:50:00+00:00,216.1098,17.8,14.56,47.84626,-54.09684
2019-08-26 15:00:00+00:00,222.1664,17.8,14.48,47.84626,-54.09684
2019-08-26 15:10:00+00:00,221.173,17.8,14.4,47.84626,-54.09684
2019-08-26 15:20:00+00:00,221.113,17.8,14.48,47.84626,-54.09684
2019-08-26 15:30:00+00:00,222.5247,17.84,14.48,47.84626,-54.09684
2019-08-26 15:40:00+00:00,224.0298,17.84,14.48,47.84626,-54.09684
2019-08-26 15:50:00+00:00,226.7181,17.82,14.48,47.84626,-54.09684
2019-08-26 16:00:00+00:00,231.1214,17.86,14.4,47.84626,-54.09684
2019-08-26 16:10:00+00:00,234.8248,17.83,14.32,47.84626,-54.09684
2019-08-26 16:20:00+00:00,236.9665,17.87,14.4,47.84626,-54.09684
2019-08-26 16:30:00+00:00,238.1031,17.9,14.4,47.84626,-54.09684
2019-08-26 16:40:00+00:00,243.2131,17.9,14.4,47.84626,-54.09684
2019-08-26 16:50:00+00:00,252.1948,17.9,14.32,47.84626,-54.09684
2019-08-26 17:00:00+00:00,257.6514,17.9,14.32,47.84626,-54.09684
2019-08-26 17:10:00+00:00,261.5764,17.9,14.24,47.84626,-54.09684
2019-08-26 17:20:00+00:00,269.6014,17.9,14.32,47.84626,-54.09684
2019-08-26 17:30:00+00:00,278.723,17.9,14.24,47.84626,-54.09684
2019-08-26 17:40:00+00:00,285.313,17.86,14.24,47.84626,-54.09684
2019-08-26 17:50:00+00:00,289.4163,17.9,14.24,47.84626,-54.09684
2019-08-26 18:00:00+00:00,290.9647,17.9,14.16,47.84626,-54.09684
2019-08-26 18:10:00+00:00,292.843,17.9,14.0,47.84626,-54.09684
2019-08-26 18:20:00+00:00,302.0596,17.89,14.08,47.84626,-54.09684
2019-08-26 18:30:00+00:00,311.8913,17.88,14.08,47.84626,-54.09684
2019-08-26 18:40:00+00:00,314.8064,17.86,14.08,47.84626,-54.09684
2019-08-26 18:50:00+00:00,315.5431,17.85,14.0,47.84626,-54.09684
2019-08-26 19:00:00+00:00,320.108,17.86,13.92,47.84626,-54.09684
2019-08-26 19:10:00+00:00,325.0212,17.81,13.84,47.84626,-54.09684
2019-08-26 19:20:00+00:00,325.5314,17.8,13.92,47.84626,-54.09684
2019-08-26 19:30:00+00:00,327.4896,17.82,13.92,47.84626,-54.09684
2019-08-26 19:40:00+00:00,321.7829,17.81,13.92,47.84626,-54.09684
2019-08-26 19:50:00+00:00,321.0347,17.8,13.92,47.84626,-54.09684
2019-08-26 20:00:00+00:00,325.6614,17.8,13.84,47.84626,-54.09684
2019-08-26 20:10:00+00:00,332.1329,17.77,13.68,47.84626,-54.09684
2019-08-26 20:20:00+00:00,333.2596,17.77,13.76,47.84626,-54.09684
2019-08-26 20:30:00+00:00,331.6631,17.78,13.76,47.84626,-54.09684
2019-08-26 20:40:00+00:00,332.493,17.8,13.76,47.84626,-54.09684
2019-08-26 20:50:00+00:00,333.4464,17.8,13.76,47.84626,-54.09684
2019-08-26 21:00:00+00:00,332.2579,17.8,13.68,47.84626,-54.09684
2019-08-26 21:10:00+00:00,324.5179,17.82,13.6,47.84626,-54.09684
2019-08-26 21:20:00+00:00,320.2313,17.9,13.6,47.84626,-54.09684
2019-08-26 21:30:00+00:00,317.5563,17.9,13.6,47.84626,-54.09684
2019-08-26 21:40:00+00:00,312.163,18.0,13.6,47.84626,-54.09684
2019-08-26 21:50:00+00:00,309.1696,18.0,13.53,47.84626,-54.09684
2019-08-26 22:00:00+00:00,307.3814,18.0,13.44,47.84626,-54.09684
2019-08-26 22:10:00+00:00,304.6464,18.0,13.29,47.84626,-54.09684
2019-08-26 22:20:00+00:00,300.513,18.0,13.21,47.84626,-54.09684
2019-08-26 22:30:00+00:00,295.3563,18.01,13.21,47.84626,-54.09684
2019-08-26 22:40:00+00:00,291.4263,18.03,13.21,47.84626,-54.09684
2019-08-26 22:50:00+00:00,283.2114,18.0,13.13,47.84626,-54.09684
2019-08-26 23:00:00+00:00,274.8081,18.0,13.05,47.84626,-54.09684
2019-08-26 23:10:00+00:00,266.7797,18.0,12.97,47.84626,-54.09684
2019-08-26 23:20:00+00:00,264.2231,18.0,12.97,47.84626,-54.09684
2019-08-26 23:30:00+00:00,260.7164,18.0,12.97,47.84626,-54.09684
2019-08-26 23:40:00+00:00,258.6214,18.0,13.05,47.84626,-54.09684
2019-08-26 23:50:00+00:00,257.1097,18.0,13.05,47.84626,-54.09684
